Weather History for Mather AFB, CA

Change the Weather History Date:

Wednesday, November 21, 2012

  Actual Average Record
Temperature  
Mean Temperature 54 °F -  
Max Temperature 60 °F 56 °F 71 °F (2005)
Min Temperature 46 °F 39 °F 32 °F (2007)
Degree Days  
Heating Degree Days 11    
Growing Degree Days 4 (Base 50)    
Moisture  
Dew Point 52 °F    
Average Humidity 93    
Maximum Humidity 100    
Minimum Humidity 72    
Precipitation  
Precipitation 0.00 in - - ()
Sea Level Pressure  
Sea Level Pressure 30.13 in    
Wind  
Wind Speed 5 mph (SE)    
Max Wind Speed 13 mph    
Max Gust Speed -    
Visibility 6 miles    
Events Rain    
Averages and records for this station are not official NWS values.
T = Trace of Precipitation, MM = Missing Value Source: NWS Daily Summary

Daily Weather History Graph

Daily Weather History Graph

Search for Another Location

Airport:

Trip Planner

Search our weather history database for the weather conditions in past years. The results will help you decide how hot, cold, wet, or windy it might be!

Date:

Astronomy

Nov. 21, 2012 Rise Set
Actual Time 6:54 AM PST 4:47 PM PST
Civil Twilight 6:25 AM PST 5:16 PM PST
Nautical Twilight 5:53 AM PST 5:49 PM PST
Astronomical Twilight 5:21 AM PST 6:20 PM PST
Moon 1:03 PM PST (11/21) 12:23 AM PST (11/21)
Length of Visible Light 10h 51m
Length of Day
9h 53m
Waxing Gibbous, 63% of the Moon is Illuminated
Nov 21
Waxing Gibbous
Nov 28
Full
Dec 6
Last Quarter
Dec 13
New
Dec 19
First Quarter

Hourly Weather History & Observations

Time (PST) Temp. Dew Point Humidity Pressure Visibility Wind Dir Wind Speed Gust Speed Precip Events Conditions
1:45 AM 53.6 °F 53.6 °F 100% 30.08 in 3.0 mi ESE 4.6 mph - N/A   Overcast
1:56 AM 55.4 °F 53.6 °F 94% 30.08 in 7.0 mi Calm Calm - N/A   Overcast
2:45 AM 53.6 °F 53.6 °F 100% 30.07 in 3.0 mi ESE 4.6 mph - N/A   Overcast
3:45 AM 53.6 °F 53.6 °F 100% 30.07 in 5.0 mi Calm Calm - N/A Rain Light Rain
4:45 AM 53.6 °F 53.6 °F 100% 30.07 in 3.0 mi SE 5.8 mph - N/A Rain Rain
5:45 AM 53.6 °F 53.6 °F 100% 30.09 in 3.0 mi SE 6.9 mph - N/A Rain Rain
6:58 AM 53.6 °F 53.6 °F 100% 30.12 in 3.0 mi Calm Calm - N/A Rain Light Rain
7:49 AM 53.6 °F 53.6 °F 100% 30.14 in 3.0 mi SSE 5.8 mph - N/A Rain Light Rain
8:45 AM 53.6 °F 53.6 °F 100% 30.15 in 2.0 mi SE 10.4 mph - N/A Rain Light Rain
9:46 AM 53.6 °F 53.6 °F 100% 30.17 in 3.0 mi South 12.7 mph - N/A Rain Light Rain
10:48 AM 55.4 °F 55.4 °F 100% 30.18 in 4.0 mi SSE 11.5 mph - N/A   Overcast
11:46 AM 57.2 °F 55.4 °F 94% 30.17 in 7.0 mi South 8.1 mph - N/A   Mostly Cloudy
12:45 PM 59.0 °F 53.6 °F 82% 30.15 in 10.0 mi South 8.1 mph - N/A   Mostly Cloudy
1:45 PM 60.8 °F 51.8 °F 72% 30.15 in 10.0 mi SSE 5.8 mph - N/A   Mostly Cloudy
2:48 PM 60.8 °F 51.8 °F 72% 30.15 in 10.0 mi SE 5.8 mph - N/A   Mostly Cloudy
3:46 PM 59.0 °F 51.8 °F 77% 30.14 in 10.0 mi SE 5.8 mph - N/A   Mostly Cloudy
4:50 PM 55.4 °F 50.0 °F 82% 30.15 in 10.0 mi ESE 5.8 mph - N/A   Scattered Clouds
6:45 PM 50.0 °F 48.2 °F 94% 30.16 in 10.0 mi ESE 4.6 mph - N/A   Scattered Clouds
7:45 PM 50.0 °F 48.2 °F 94% 30.17 in 10.0 mi Calm Calm - N/A   Clear
8:45 PM 48.2 °F 48.2 °F 100% 30.18 in 10.0 mi Calm Calm - N/A   Clear
10:45 PM 46.4 °F 46.4 °F 100% 30.19 in 10.0 mi Calm Calm - N/A   Clear